STARLINK-4505 (53556 NORAD) Tracking and Keplerian Element Data

This shows tracking and keplerian element data for the satellite.

Feedback or suggestion? Click here.




ElementValue
Catalog53556
NameSTARLINK-4505
Epoch Orbit1444
Epoch Day325.00971188
Epoch Year2022
RAAN72.1352
Inclination53.2214
Eccentricity0.000152
Argument of Perigee47.0158
Mean Anonmoly313.0961
Mean Motion15.08844256
Decay Rate4.56E-06
L11 53556U 22101AF 22325.00971188 .00000456 00000+0 46762-4 0 9991
L22 53556 53.2214 72.1352 0001520 47.0158 313.0961 15.08844256 14445



Live tracking and technical data element details for STARLINK-4505 (NORAD 53556). STARLINK-4505 can be tracked NOW for your location showing map with azimuth and elevation plus other details from your city location.







IsCatalogInMostPopularTable: catalog: 53556, numindb: 4
Update: records affected: 1



GetName: 53556 STARLINK-4505

Hit Count: updated at: Thu, 08 Dec 2022 20:51:54 GMT